Flag for Germany Weather past 2 weeks in Alsdorf, North Rhine-Westphalia, Germany

Now
54 °F

Passing clouds.


Feels Like: 50 °F
Forecast: 50 / 60 °F
Wind: 10 mph from Southwest

Location: Maastricht Airport Zuid Limburg

Current Time: Sep 5, 2015 at 1:43:50 AM

Latest Report: Sep 5, 2015 at 12:55 AM


Visibility: N/A

Pressure: 29.98 "Hg

Humidity: 88%

Dew point: 50 °F

Location of AlsdorfLocation

Historic Weather in Alsdorf — Graph

°F

Alsdorf temperature yesterday

Maximum temperature yesterday: 61 °F (at 1:25 PM)
Minimum temperature yesterday: 50 °F (at 3:55 AM)
Average temperature yesterday: 55 °F

Past Weeks' High & Low Weather Summary

 TemperatureHumidityPressure
High88 °F (Aug 30, 2:25 PM)100% (Aug 23, 9:25 PM)30.24 "Hg (Aug 23, 9:25 PM)
Low50 °F (Aug 29, 5:55 AM)34% (Aug 23, 2:25 PM)29.50 "Hg (Aug 24, 2:25 PM)
Average65 °F75%29.94 "Hg
* Reported Aug 21 12:55 AM — Sep 5 12:25 AM, Alsdorf, Weather by CustomWeather, © 2015

Note: Actual official high and low records may vary slightly from our data, if they occured in-between our weather recording intervals... More about our weather records

Advertising

Alsdorf weather history for previous 24 hours

 ConditionsComfort  
Time TempWeatherWind HumidityBarometerVisibility
12:25 AM
Sat, Sep 5
54 °FPartly cloudy.10 mph82%29.98 "HgN/A
11:55 PM
Fri, Sep 4
54 °FPassing clouds.10 mph82%29.98 "HgN/A
11:25 PM55 °FOvercast.12 mph77%29.98 "HgN/A
10:55 PM55 °FOvercast.10 mph77%29.98 "HgN/A
10:25 PM55 °FClear.12 mph77%29.98 "HgN/A
9:55 PM55 °FPassing clouds.10 mph77%29.98 "HgN/A
9:25 PM55 °FClear.9 mph77%29.98 "HgN/A
8:55 PM55 °FMostly cloudy.10 mph77%29.98 "HgN/A
8:25 PM55 °FClear.9 mph77%29.98 "HgN/A
7:55 PM55 °FBroken clouds.8 mph77%29.98 "HgN/A
7:25 PM57 °FClear.10 mph67%29.95 "HgN/A
6:55 PM57 °FPassing clouds.10 mph72%29.95 "HgN/A
6:25 PM59 °FClear.9 mph63%29.95 "HgN/A
5:55 PM59 °FPassing clouds.9 mph63%29.95 "HgN/A
5:25 PM59 °FBroken clouds.8 mph63%29.98 "HgN/A
4:55 PM59 °FMore clouds than sun.8 mph68%29.95 "HgN/A
4:25 PM59 °FCloudy.8 mph68%29.98 "HgN/A
3:55 PM61 °FPartly sunny.13 mph63%29.98 "HgN/A
3:25 PM61 °FPassing clouds.15 mph59%29.98 "HgN/A
2:55 PM61 °FClear.10 mph59%29.98 "HgN/A
2:25 PM61 °FBroken clouds.15 mph63%29.98 "HgN/A
1:55 PM61 °FPartly sunny.13 mph63%29.98 "HgN/A
1:25 PM61 °FBroken clouds.14 mph63%29.98 "HgN/A
12:55 PM59 °FScattered clouds.14 mph68%29.98 "HgN/A
12:25 PM59 °FBroken clouds.14 mph68%29.98 "HgN/A
11:55 AM57 °FBroken clouds.15 mph67%29.98 "HgN/A
11:25 AM57 °FCloudy.13 mph72%29.98 "HgN/A
10:55 AM57 °FPassing clouds.14 mph72%29.98 "HgN/A
10:25 AM55 °FScattered clouds.13 mph82%29.98 "HgN/A
9:55 AM55 °FPassing clouds.13 mph77%29.98 "HgN/A
9:25 AM54 °FClear.14 mph82%29.98 "HgN/A
8:55 AM54 °FPartly sunny.13 mph82%29.98 "HgN/A
8:25 AM52 °FPassing clouds.12 mph88%29.98 "HgN/A
7:55 AM52 °FClear.12 mph88%29.95 "HgN/A
7:25 AM52 °FClear.12 mph88%29.95 "HgN/A
6:55 AM50 °FClear.9 mph94%29.95 "HgN/A
6:25 AM52 °FPassing clouds.10 mph88%29.95 "HgN/A
5:55 AM52 °FClear.8 mph88%29.95 "HgN/A
5:25 AM50 °FClear.8 mph94%29.95 "HgN/A
4:55 AM50 °FClear.8 mph94%29.98 "Hg5 mi
4:25 AM50 °FClear.8 mph94%29.98 "Hg5 mi
3:55 AM50 °FClear.6 mph94%29.98 "Hg6 mi
3:25 AM52 °FClear.8 mph94%29.98 "HgN/A
2:55 AM52 °FClear.9 mph94%29.98 "HgN/A
2:25 AM54 °FOvercast.8 mph88%29.98 "HgN/A
1:55 AM54 °FPartly cloudy.8 mph88%29.98 "HgN/A
1:25 AM54 °FPartly cloudy.8 mph88%29.98 "HgN/A
Weather by CustomWeather, © 2015

See weather overviewHow to use our weather pages